Location: Kumla
(59.1265°N, 15.1401°E)
Time: 02:02:23
(UTC+01:00)

Vanguard 1 - Pass Details

Date: 10 December 2023
Orbit: 653 x 3825 km, 34.3° (Epoch: 03 March)

Event Time Altitude Azimuth Distance (km) Brightness Sun altitude
Rises 23:57:15 0° 271° (W) 7,466 14.6 -53.7°
Enters shadow 00:06:48 - 249° (WSW) 6,906 14.1 -53.6°
Reaches altitude 10° 00:08:15 10° 245° (WSW) 6,861 - -53.6°
Maximum altitude 00:14:02 12° 230° (SW) 6,788 - -53.5°
Drops below altitude 10° 00:19:53 10° 215° (SW) 6,889 - -53.4°
Sets 00:31:16 0° 189° (S) 7,527 - -53.1°
